When you browse on this site, cookies collect data to enhance your experience and personalize the content and advertising you see.
Visit our Privacy Policy to learn more. By continuing to use the site, you agree to this use of cookies and data.

Tiempo cada hora Popovka 1-ya

Hoy, 15 Agosto, Sábado

Tiempo Temperatura Precipitaciones Viento Presión Humedad
00:00 +9°C° 0 mm 2 mps 740 mmHg 85%
01:00 +8°C° 0 mm 2 mps 740 mmHg 87%
02:00 +8°C° 0 mm 2 mps 740 mmHg 91%
03:00 +8°C° 0 mm 2 mps 740 mmHg 91%
04:00 +8°C° 0 mm 2 mps 740 mmHg 92%
05:00 +8°C° 0 mm 2 mps 740 mmHg 93%
06:00 +10°C° 0 mm 3 mps 740 mmHg 86%
07:00 +12°C° 0 mm 3 mps 740 mmHg 79%
08:00 +14°C° 0 mm 3 mps 741 mmHg 72%
09:00 +16°C° 0 mm 3 mps 741 mmHg 67%
10:00 +17°C° 0 mm 3 mps 741 mmHg 63%
11:00 +18°C° 0 mm 4 mps 740 mmHg 58%
12:00 +18°C° 0 mm 3 mps 740 mmHg 58%
13:00 +18°C° 0 mm 3 mps 740 mmHg 57%
14:00 +19°C° 0 mm 4 mps 740 mmHg 57%
15:00 +18°C° 0 mm 3 mps 740 mmHg 61%
16:00 +18°C° 0 mm 3 mps 740 mmHg 64%
17:00 +18°C° 0 mm 3 mps 739 mmHg 67%
18:00 +17°C° 0 mm 2 mps 739 mmHg 71%
19:00 +15°C° 0 mm 2 mps 739 mmHg 74%
20:00 +14°C° 0 mm 2 mps 739 mmHg 77%
21:00 +14°C° 0 mm 2 mps 739 mmHg 80%
22:00 +14°C° 0 mm 2 mps 739 mmHg 83%
23:00 +14°C° 0 mm 1 mps 739 mmHg 85%

Mañana, 16 Agosto, Domingo

Tiempo Temperatura Precipitaciones Viento Presión Humedad
00:00 +13°C° 0.2 mm 2 mps 739 mmHg 88%
01:00 +13°C° 0.2 mm 2 mps 739 mmHg 90%
02:00 +13°C° 0.2 mm 2 mps 739 mmHg 93%
03:00 +13°C° 0.4 mm 2 mps 739 mmHg 94%
04:00 +13°C° 0.4 mm 2 mps 738 mmHg 95%
05:00 +13°C° 0.4 mm 1 mps 738 mmHg 96%
06:00 +14°C° 0 mm 2 mps 738 mmHg 91%
07:00 +15°C° 0 mm 2 mps 738 mmHg 86%
08:00 +16°C° 0 mm 2 mps 738 mmHg 81%
09:00 +17°C° 0 mm 2 mps 738 mmHg 79%
10:00 +18°C° 0 mm 2 mps 738 mmHg 76%
11:00 +18°C° 0 mm 2 mps 738 mmHg 73%
12:00 +19°C° 0 mm 2 mps 738 mmHg 70%
13:00 +20°C° 0 mm 3 mps 738 mmHg 67%
14:00 +21°C° 0 mm 3 mps 737 mmHg 64%
15:00 +21°C° 0 mm 3 mps 737 mmHg 67%
16:00 +21°C° 0 mm 2 mps 737 mmHg 70%
17:00 +21°C° 0 mm 2 mps 737 mmHg 72%
18:00 +19°C° 0 mm 2 mps 737 mmHg 78%
19:00 +18°C° 0 mm 2 mps 737 mmHg 84%
20:00 +17°C° 0 mm 2 mps 737 mmHg 90%
21:00 +16°C° 0 mm 3 mps 737 mmHg 91%
22:00 +16°C° 0 mm 3 mps 737 mmHg 92%
23:00 +16°C° 0 mm 3 mps 736 mmHg 93%

Pasado mañana, 17 Agosto, Lunes

Tiempo Temperatura Precipitaciones Viento Presión Humedad
00:00 +14°C° 0 mm 3 mps 736 mmHg 93%
01:00 +14°C° 0 mm 3 mps 736 mmHg 93%
02:00 +14°C° 0 mm 3 mps 736 mmHg 93%
03:00 +14°C° 0 mm 3 mps 736 mmHg 93%
04:00 +14°C° 0 mm 3 mps 736 mmHg 93%
05:00 +14°C° 0 mm 3 mps 736 mmHg 93%
06:00 +16°C° 0 mm 3 mps 736 mmHg 88%
07:00 +18°C° 0 mm 4 mps 737 mmHg 83%
08:00 +20°C° 0 mm 4 mps 737 mmHg 78%
09:00 +21°C° 0.3 mm 4 mps 737 mmHg 73%
10:00 +22°C° 0.3 mm 5 mps 736 mmHg 68%
11:00 +25°C° 0.3 mm 5 mps 736 mmHg 63%
12:00 +25°C° 0.7 mm 5 mps 736 mmHg 63%
13:00 +25°C° 0.7 mm 5 mps 736 mmHg 64%
14:00 +25°C° 0.7 mm 5 mps 736 mmHg 65%
15:00 +23°C° 0.2 mm 5 mps 736 mmHg 67%
16:00 +23°C° 0.2 mm 4 mps 736 mmHg 70%
17:00 +23°C° 0.2 mm 4 mps 736 mmHg 72%
18:00 +21°C° 0 mm 4 mps 736 mmHg 77%
19:00 +20°C° 0 mm 3 mps 736 mmHg 82%
20:00 +18°C° 0 mm 3 mps 736 mmHg 86%
21:00 +18°C° 0 mm 3 mps 736 mmHg 88%
22:00 +17°C° 0 mm 3 mps 736 mmHg 90%
23:00 +16°C° 0 mm 2 mps 736 mmHg 92%

18 Agosto, Martes

Tiempo Temperatura Precipitaciones Viento Presión Humedad
00:00 +16°C° 0 mm 2 mps 736 mmHg 93%
01:00 +16°C° 0 mm 2 mps 737 mmHg 94%
02:00 +15°C° 0 mm 2 mps 737 mmHg 95%
03:00 +15°C° 0 mm 2 mps 737 mmHg 93%
04:00 +14°C° 0 mm 2 mps 737 mmHg 92%
05:00 +14°C° 0 mm 1 mps 737 mmHg 90%
06:00 +16°C° 0 mm 2 mps 737 mmHg 83%
07:00 +17°C° 0 mm 2 mps 737 mmHg 75%
08:00 +19°C° 0 mm 2 mps 738 mmHg 67%
09:00 +20°C° 0 mm 2 mps 738 mmHg 63%
10:00 +21°C° 0 mm 2 mps 738 mmHg 60%
11:00 +23°C° 0 mm 2 mps 737 mmHg 56%
12:00 +23°C° 0 mm 2 mps 737 mmHg 55%
13:00 +24°C° 0 mm 2 mps 737 mmHg 54%
14:00 +24°C° 0 mm 2 mps 737 mmHg 54%
15:00 +24°C° 0 mm 2 mps 737 mmHg 57%
16:00 +24°C° 0 mm 2 mps 737 mmHg 61%
17:00 +24°C° 0 mm 2 mps 737 mmHg 65%
18:00 +21°C° 0 mm 2 mps 736 mmHg 67%
19:00 +20°C° 0 mm 2 mps 736 mmHg 69%
20:00 +18°C° 0 mm 3 mps 736 mmHg 72%
21:00 +18°C° 0.2 mm 2 mps 736 mmHg 73%
22:00 +17°C° 0.2 mm 2 mps 736 mmHg 74%
23:00 +17°C° 0.2 mm 2 mps 736 mmHg 76%

19 Agosto, Miércoles

Tiempo Temperatura Precipitaciones Viento Presión Humedad
00:00 +16°C° 0.6 mm 3 mps 736 mmHg 79%
01:00 +16°C° 0.6 mm 3 mps 736 mmHg 83%
02:00 +16°C° 0.6 mm 3 mps 736 mmHg 86%
03:00 +14°C° 0 mm 3 mps 736 mmHg 87%
04:00 +14°C° 0 mm 3 mps 736 mmHg 88%
05:00 +15°C° 0 mm 2 mps 736 mmHg 89%
06:00 +16°C° 0 mm 2 mps 736 mmHg 87%
07:00 +17°C° 0 mm 2 mps 736 mmHg 85%
08:00 +18°C° 0 mm 2 mps 736 mmHg 83%
09:00 +21°C° 0.3 mm 1 mps 736 mmHg 77%
10:00 +22°C° 0.3 mm 1 mps 736 mmHg 71%
11:00 +24°C° 0.3 mm 1 mps 737 mmHg 65%
12:00 +24°C° 0.3 mm 1 mps 736 mmHg 66%
13:00 +24°C° 0.3 mm 1 mps 736 mmHg 67%
14:00 +24°C° 0.3 mm 1 mps 736 mmHg 68%
15:00 +21°C° 0.4 mm 2 mps 736 mmHg 74%
16:00 +20°C° 0.4 mm 3 mps 736 mmHg 80%
17:00 +18°C° 0.4 mm 4 mps 736 mmHg 86%
18:00 +18°C° 0.4 mm 4 mps 736 mmHg 87%
19:00 +18°C° 0.4 mm 4 mps 736 mmHg 87%
20:00 +17°C° 0.4 mm 4 mps 736 mmHg 88%
21:00 +17°C° 0.1 mm 4 mps 736 mmHg 87%
22:00 +16°C° 0.1 mm 5 mps 736 mmHg 86%
23:00 +17°C° 0.1 mm 5 mps 736 mmHg 84%

20 Agosto, Jueves

Tiempo Temperatura Precipitaciones Viento Presión Humedad
00:00 +17°C° 0 mm 5 mps 736 mmHg 84%
01:00 +17°C° 0 mm 5 mps 736 mmHg 85%
02:00 +17°C° 0 mm 5 mps 736 mmHg 85%
03:00 +17°C° 0 mm 5 mps 736 mmHg 86%
04:00 +17°C° 0 mm 5 mps 736 mmHg 87%
05:00 +16°C° 0 mm 5 mps 735 mmHg 87%
06:00 +19°C° 0 mm 5 mps 736 mmHg 84%
07:00 +20°C° 0 mm 5 mps 736 mmHg 80%
08:00 +21°C° 0 mm 5 mps 736 mmHg 76%
09:00 +22°C° 0 mm 5 mps 736 mmHg 72%
10:00 +23°C° 0 mm 4 mps 736 mmHg 69%
11:00 +25°C° 0 mm 4 mps 736 mmHg 65%
12:00 +26°C° 0 mm 4 mps 736 mmHg 62%
13:00 +27°C° 0 mm 4 mps 736 mmHg 60%
14:00 +28°C° 0 mm 5 mps 736 mmHg 57%
15:00 +27°C° 0.1 mm 4 mps 736 mmHg 61%
16:00 +27°C° 0.1 mm 3 mps 736 mmHg 64%
17:00 +26°C° 0.1 mm 3 mps 736 mmHg 68%
18:00 +24°C° 0.2 mm 3 mps 736 mmHg 72%
19:00 +22°C° 0.2 mm 3 mps 736 mmHg 75%
20:00 +20°C° 0.2 mm 2 mps 736 mmHg 79%
21:00 +20°C° 0 mm 2 mps 737 mmHg 80%
22:00 +19°C° 0 mm 3 mps 737 mmHg 80%
23:00 +19°C° 0 mm 3 mps 737 mmHg 81%
Mostrar más